[[{"header":{"parameterUnit":"m.s-1","parameterCategory":2,"la1":30.2991,"la2":30.254,"lo1":-89.0895,"lo2":-89.0444,"dy":0.0017,"dx":0.0017,"nx":28,"ny":28,"refTime":"2025-11-21T03:00:00:Z","depth":"0","parameterNumber":2,"parameterNumberName":"U-component_of_CURRENTS"},"data":[0,0,0,0,0,0,0,0,0,0,0,0,0,0,0,0,0,0,0,0,0,0,0,0,0,0,0,0,0,0,0,0,0,0,0,0,0,0,0,0,0,0,0,0,0,0,0,0,0,0,0,0,0,0,0,0,0,0,0.3314,0.3314,0,0.3357,0.3357,0.3358,0.335,0.335,0.3349,0.3349,0.338,0.3381,0.3383,0,0,0,0,0,0,0,0,0,0,0,0,0,0.3246,0.3247,0.3314,0.3314,0.3315,0.3357,0.3357,0.3358,0.335,0.335,0.3349,0.3349,0.338,0.3381,0.3383,0,0,0,0,0,0,0,0,0,0,0,0,0,0.3278,0.3247,0.3314,0.3319,0.332,0.3357,0.3357,0.3358,0.3351,0.335,0.3349,0.3348,0.3379,0.3381,0.3383,0.3409,0,0,0.3389,0.339,0,0,0,0,0,0,0,0,0.3276,0.328,0.3317,0.3319,0.332,0.335,0.3345,0.3375,0.3351,0.3336,0.3349,0.3348,0.3372,0.3374,0.338,0.3411,0.3412,0.3389,0.339,0.3391,0.3392,0,0,0,0,0,0,0,0.3274,0.3278,0.3328,0.3318,0.332,0.3327,0.333,0.3351,0.3355,0.3337,0.3337,0.3347,0.3372,0.3378,0.338,0.3412,0.3389,0.3391,0.3392,0.3393,0.3471,0.3472,0,0,0,0,0,0,0.3275,0.3276,0.3326,0.3329,0.3299,0.3329,0.3332,0.3339,0.3355,0.3357,0.3348,0.3347,0.3375,0.3378,0.3381,0.3434,0.3391,0.3393,0.3394,0.347,0.3471,0.3472,0,0,0,0,0,0,0.3273,0.3278,0.3325,0.3306,0.3313,0.3331,0.3338,0.334,0.3349,0.3364,0.3365,0.3355,0.3374,0.3379,0.3405,0.3434,0.3394,0.3395,0.3469,0.347,0.3472,0.3526,0,0,0,0,0,0,0.3271,0.3277,0.3282,0.3306,0.3314,0.3354,0.3339,0.3342,0.3358,0.3357,0.3371,0.3373,0.3374,0.3402,0.3407,0.3436,0.3397,0.3468,0.347,0.3471,0.3523,0.3529,0.3535,0,0,0,0,0,0.3268,0.3278,0.3282,0.3288,0.332,0.3356,0.336,0.3368,0.3359,0.3371,0.3377,0.3372,0.3416,0.3405,0.341,0.3441,0.3467,0.3469,0.3471,0.3521,0.3528,0.3535,0,0,0,0,0,0,0.3247,0.328,0.3284,0.3302,0.3331,0.3356,0.337,0.3373,0.3388,0.3386,0.3388,0.3391,0.3427,0.3423,0.341,0.3466,0.344,0.3443,0.3476,0.3483,0.3489,0.3507,0.3398,0,0,0,0,0,0.3247,0.3265,0.3297,0.3313,0.3329,0.335,0.3364,0.3374,0.3392,0.3397,0.3406,0.3417,0.3441,0.3452,0.3469,0.3502,0.3522,0.3523,0.3528,0.3533,0.3551,0.3607,0.362,0.3479,0.3479,0.3479,0,0,0.324,0.3264,0.3271,0.331,0.3331,0.3365,0.3356,0.3386,0.3413,0.34,0.3432,0.3441,0.3454,0.3491,0.3506,0.3491,0.3583,0.3536,0.354,0.3555,0.3611,0.3624,0.3637,0.3481,0.348,0.348,0,0,0.3247,0.3262,0.3284,0.3314,0.3357,0.3377,0.3388,0.342,0.3433,0.3468,0.3467,0.3495,0.3519,0.3543,0.3555,0.3603,0.3613,0.3602,0.3647,0.3701,0.3714,0.3725,0.3767,0.3782,0.3602,0.3602,0.3602,0,0.3237,0.3272,0.3296,0.3333,0.3358,0.3385,0.3417,0.3445,0.3479,0.3506,0.3483,0.355,0.355,0.3617,0.3625,0.362,0.3646,0.3621,0.3711,0.3722,0.3733,0.3773,0.3789,0.3605,0.3605,0.3605,0.3604,0,0.3268,0.3298,0.3317,0.3371,0.3401,0.3436,0.348,0.3513,0.3527,0.3561,0.3624,0.3631,0.3675,0.3674,0.3662,0.3741,0.3734,0.3715,0.3697,0.3751,0.3789,0.3804,0.3609,0.3608,0.3607,0.3607,0,0,0.3231,0.332,0.3325,0.3358,0.3424,0.3451,0.351,0.3578,0.363,0.3663,0.3731,0.3762,0.3779,0.3794,0.379,0.3824,0.3907,0.38,0.3801,0.3848,0.4029,0.3992,0.4005,0.3906,0.3909,0.3912,0.4025,0,0.3246,0.331,0.3355,0.3416,0.3451,0.3505,0.3559,0.3626,0.3679,0.3754,0.3795,0.3853,0.3824,0.3843,0.3883,0.3914,0.395,0.3878,0.3964,0.3967,0.3934,0.4023,0.3868,0.3954,0.404,0.4042,0.4044,0,0.3252,0.3299,0.3354,0.3444,0.3465,0.3505,0.36,0.3663,0.3784,0.3829,0.3912,0.3948,0.4033,0.3973,0.4084,0.4043,0.4042,0.4047,0.4052,0.4013,0.396,0.3914,0.3978,0.3859,0.4067,0.4066,0.4064,0,0.3199,0.3294,0.3334,0.3364,0.347,0.3504,0.3566,0.3679,0.3755,0.3886,0.3958,0.406,0.4125,0.416,0.4191,0.4145,0.4297,0.4234,0.4201,0.4198,0.4082,0.4064,0.4047,0.4295,0.4295,0.4295,0.4294,0,0.3188,0.3222,0.3311,0.3335,0.34,0.3478,0.3571,0.3652,0.3789,0.3902,0.3997,0.4097,0.4174,0.4267,0.4256,0.4309,0.4363,0.4242,0.424,0.4094,0.4077,0.3978,0.3922,0.4299,0.4298,0.4297,0.4296,0,0.3131,0.3185,0.3246,0.3347,0.3376,0.3425,0.3569,0.3652,0.3782,0.3932,0.3979,0.4164,0.4294,0.436,0.444,0.4403,0.4312,0.4418,0.4243,0.4218,0.4041,0.3994,0.3886,0.3766,0.4405,0.4405,0.4405,0,0.3116,0.3135,0.3235,0.3279,0.3325,0.3412,0.3484,0.3624,0.3716,0.3967,0.4034,0.4222,0.4336,0.4479,0.4455,0.4471,0.4318,0.4314,0.4185,0.4044,0.3991,0.3841,0.3735,0.4052,0.4049,0.4047,0.4045,0,0.3108,0.3135,0.3199,0.3264,0.333,0.3404,0.3507,0.3565,0.375,0.3869,0.404,0.4154,0.4334,0.431,0.4362,0.4339,0.4108,0.4264,0.4165,0.3768,0.3557,0.3435,0.3963,0.4024,0.4026,0.4028,0.4029,0.4029,0.3121,0.3148,0.3221,0.3273,0.3337,0.3369,0.3377,0.3496,0.3598,0.3728,0.3928,0.4015,0.4132,0.419,0.4154,0.3988,0.3962,0.383,0.3805,0.3681,0.3495,0.3983,0.4009,0.4011,0.4012,0.4014,0.4015,0,0.3136,0.3165,0.3227,0.3265,0.3278,0.3322,0.3374,0.3348,0.3387,0.355,0.3658,0.3733,0.3745,0.3787,0.3715,0.3548,0.3371,0.3434,0.3173,0.3106,0.3588,0.3501,0.336,0.336,0.336,0.336,0.336,0.336,0.316,0.3196,0.3199,0.319,0.3196,0.313,0.3111,0.3092,0.3134,0.3144,0.3156,0.3259,0.3443,0.3501,0.334,0.3238,0.2951,0.282,0.2807,0.3139,0.3172,0.3204,0.3108,0.2887,0.2886,0.2184,0.2178,0.2174]},{"header":{"parameterUnit":"m.s-1","parameterCategory":2,"la1":30.2991,"la2":30.254,"lo1":-89.0895,"lo2":-89.0444,"dy":0.0017,"dx":0.0017,"nx":28,"ny":28,"refTime":"2025-11-21T03:00:00:Z","depth":"0","parameterNumber":3,"parameterNumberName":"V-component_of_CURRENTS"},"data":[0,0,0,0,0,0,0,0,0,0,0,0,0,0,0,0,0,0,0,0,0,0,0,0,0,0,0,0,0,0,0,0,0,0,0,0,0,0,0,0,0,0,0,0,0,0,0,0,0,0,0,0,0,0,0,0,0,0,0.027,0.027,0,0.0232,0.0232,0.0231,0.0195,0.0195,0.0195,0.0194,0.0127,0.0125,0.0124,0,0,0,0,0,0,0,0,0,0,0,0,0,0.0269,0.027,0.027,0.027,0.0269,0.0232,0.0232,0.0231,0.0195,0.0195,0.0194,0.0194,0.0127,0.0125,0.0123,0,0,0,0,0,0,0,0,0,0,0,0,0,0.0253,0.027,0.027,0.0248,0.0246,0.0233,0.0232,0.0231,0.0195,0.0195,0.0194,0.0194,0.0128,0.0125,0.0123,0.0119,0,0,0.0116,0.0115,0,0,0,0,0,0,0,0,0.0254,0.0253,0.0252,0.025,0.0247,0.0219,0.0207,0.0192,0.0195,0.0213,0.0194,0.0194,0.0156,0.0152,0.0144,0.0116,0.0113,0.0116,0.0115,0.0114,0.0113,0,0,0,0,0,0,0,0.0255,0.0254,0.0253,0.0251,0.0249,0.0226,0.0224,0.0204,0.0186,0.0211,0.0209,0.0208,0.0154,0.0146,0.0142,0.0112,0.0116,0.0114,0.0113,0.0112,0.0081,0.0082,0,0,0,0,0,0,0.0266,0.0256,0.0255,0.0252,0.0251,0.0227,0.0224,0.0227,0.0187,0.0181,0.0208,0.0206,0.015,0.0144,0.0139,0.015,0.0114,0.0112,0.011,0.0081,0.0081,0.0082,0,0,0,0,0,0,0.0266,0.0267,0.0256,0.0254,0.0251,0.0228,0.0232,0.0227,0.0221,0.0185,0.0178,0.0207,0.015,0.0142,0.0131,0.0146,0.0111,0.0109,0.008,0.0081,0.0081,0.016,0,0,0,0,0,0,0.0266,0.0267,0.0272,0.0255,0.0252,0.026,0.0232,0.0227,0.0221,0.0218,0.0182,0.0175,0.0149,0.0135,0.0129,0.0143,0.0107,0.0079,0.008,0.0081,0.0156,0.0163,0.0169,0,0,0,0,0,0.0267,0.0284,0.0272,0.0272,0.026,0.0261,0.0257,0.0237,0.0222,0.0228,0.0202,0.0176,0.0137,0.0134,0.0126,0.014,0.0079,0.008,0.0081,0.0154,0.0162,0.0169,0,0,0,0,0,0,0.0288,0.0282,0.0268,0.0282,0.0275,0.0256,0.0259,0.0243,0.0227,0.0222,0.0185,0.0177,0.017,0.0145,0.0142,0.0133,0.0103,0.0102,0.016,0.0167,0.0173,0.0194,0.0105,0,0,0,0,0,0.0295,0.0304,0.0292,0.0302,0.0301,0.0279,0.0275,0.0263,0.0248,0.024,0.0215,0.0187,0.0169,0.0161,0.0138,0.0137,0.0109,0.0139,0.0146,0.0151,0.0162,0.0131,0.0136,0.0086,0.0086,0.0086,0,0,0.0305,0.0303,0.0307,0.0307,0.0297,0.0313,0.0276,0.0278,0.029,0.0235,0.0241,0.0207,0.0172,0.017,0.0165,0.0152,0.0151,0.0153,0.0158,0.0166,0.0133,0.0138,0.0142,0.0087,0.0086,0.0086,0,0,0.034,0.0329,0.0352,0.0352,0.0347,0.0337,0.0342,0.0326,0.0317,0.0316,0.0279,0.0259,0.0231,0.0213,0.0199,0.0225,0.0181,0.0214,0.0267,0.0237,0.0241,0.0244,0.0218,0.0218,0.0221,0.0222,0.0222,0,0.0352,0.0381,0.0358,0.0383,0.0393,0.0355,0.0387,0.0374,0.0357,0.0361,0.0328,0.0292,0.0253,0.026,0.0263,0.0241,0.0216,0.0244,0.0246,0.0249,0.0251,0.0223,0.0222,0.0226,0.0225,0.0225,0.0224,0,0.0409,0.043,0.0445,0.0464,0.047,0.049,0.0476,0.0473,0.0451,0.0443,0.0435,0.0379,0.0361,0.034,0.0307,0.0309,0.0285,0.0255,0.0231,0.0261,0.0229,0.0227,0.0231,0.023,0.0229,0.0228,0,0,0.0444,0.0479,0.0485,0.0513,0.0517,0.0533,0.0548,0.0563,0.0594,0.0545,0.0578,0.0516,0.0481,0.0463,0.0413,0.038,0.0361,0.0328,0.0325,0.031,0.0299,0.0286,0.0282,0.0331,0.0331,0.0331,0.0273,0,0.0497,0.0567,0.0567,0.0631,0.0667,0.0643,0.0672,0.0675,0.0668,0.0688,0.0619,0.0625,0.0531,0.0526,0.0476,0.0407,0.0359,0.038,0.0266,0.0263,0.0254,0.028,0.0286,0.0235,0.027,0.027,0.0269,0,0.0555,0.0598,0.0672,0.073,0.0744,0.0774,0.0819,0.0845,0.0852,0.0847,0.0823,0.0771,0.0726,0.0632,0.0512,0.0532,0.0416,0.0341,0.0336,0.0298,0.0247,0.0208,0.0229,0.0061,0.0266,0.0266,0.0266,0,0.0602,0.0672,0.0737,0.0755,0.081,0.0838,0.0871,0.0897,0.0955,0.0956,0.1001,0.0911,0.0899,0.0744,0.0577,0.0544,0.0444,0.0379,0.0251,0.0248,0.0218,0.0214,0.007,0.0267,0.0267,0.0268,0.0268,0,0.0665,0.0717,0.0767,0.0805,0.0899,0.091,0.1017,0.1029,0.1093,0.1206,0.1097,0.1161,0.0925,0.0837,0.0641,0.0466,0.0488,0.0271,0.0237,0.0246,0.0245,0.0068,-0.0035,0.0265,0.0266,0.0266,0.0267,0,0.0713,0.0739,0.0827,0.0898,0.0925,0.1,0.1126,0.122,0.1256,0.1397,0.1407,0.136,0.1253,0.1011,0.0783,0.0581,0.0287,0.0304,0.0334,0.0305,0.0016,-0.0082,-0.027,-0.034,0.0154,0.0154,0.0153,0,0.0748,0.0795,0.0899,0.097,0.1009,0.1122,0.1219,0.129,0.141,0.1546,0.1635,0.1564,0.1561,0.1223,0.0837,0.0492,0.0294,0.0252,0.0173,0.0013,-0.0122,-0.02,-0.025,0.016,0.0159,0.0159,0.0159,0,0.0829,0.086,0.0941,0.1078,0.1188,0.1327,0.1472,0.1585,0.1709,0.1836,0.1992,0.1998,0.1683,0.1337,0.0842,0.0597,0.014,0.0234,0.0058,-0.0133,-0.0216,-0.0302,0.0185,0.0156,0.0156,0.0156,0.0156,0.0157,0.0899,0.0973,0.108,0.121,0.1345,0.1523,0.1652,0.1832,0.2036,0.2245,0.2246,0.2286,0.1767,0.1103,0.0766,0.0121,0.0106,-0.0091,-0.0197,-0.0261,-0.0332,0.0157,0.0097,0.0097,0.0097,0.0097,0.0097,0,0.0992,0.1076,0.1208,0.1373,0.1533,0.1582,0.1819,0.1968,0.2222,0.2398,0.2525,0.2255,0.1663,0.1037,0.0161,-0.0249,-0.0396,-0.0466,-0.0587,-0.0619,-0.0192,-0.0194,-0.0305,-0.0305,-0.0305,-0.0305,-0.0304,-0.0304,0.1052,0.1184,0.1243,0.1499,0.1621,0.1837,0.1973,0.2195,0.2351,0.2543,0.2532,0.249,0.1949,0.0499,-0.0446,-0.0638,-0.0912,-0.0987,-0.1111,-0.0838,-0.0811,-0.0785,-0.081,-0.1049,-0.105,-0.1479,-0.1484,-0.1487]}],[{"header":{"parameterUnit":"m.s-1","parameterCategory":2,"la1":30.2991,"la2":30.254,"lo1":-89.0895,"lo2":-89.0444,"dy":0.0017,"dx":0.0017,"nx":28,"ny":28,"refTime":"2025-11-21T03:00:00:Z","depth":"2","parameterNumber":2,"parameterNumberName":"U-component_of_CURRENTS"},"data":[0,0,0,0,0,0,0,0,0,0,0,0,0,0,0,0,0,0,0,0,0,0,0,0,0,0,0,0,0,0,0,0,0,0,0,0,0,0,0,0,0,0,0,0,0,0,0,0,0,0,0,0,0,0,0,0,0,0,0.2805,0.2806,0,0.2836,0.2836,0.2836,0.2837,0.2837,0.2837,0.2837,0.2851,0.2852,0.2852,0,0,0,0,0,0,0,0,0,0,0,0,0,0.2757,0.2758,0.2805,0.2806,0.2806,0.2836,0.2836,0.2836,0.2837,0.2837,0.2837,0.2837,0.2851,0.2852,0.2852,0,0,0,0,0,0,0,0,0,0,0,0,0,0.2779,0.2758,0.2805,0.2812,0.2814,0.2836,0.2836,0.2836,0.2837,0.2837,0.2837,0.2837,0.2851,0.2851,0.2852,0.2861,0,0,0.2854,0.2855,0,0,0,0,0,0,0,0,0.2778,0.2781,0.2811,0.2812,0.2813,0.2835,0.2824,0.2844,0.2838,0.2826,0.2837,0.2837,0.2846,0.2847,0.285,0.2862,0.2862,0.2855,0.2855,0.2855,0.2856,0,0,0,0,0,0,0,0.2777,0.278,0.2815,0.2812,0.2813,0.2817,0.282,0.2828,0.2834,0.2827,0.2828,0.2835,0.2846,0.2849,0.285,0.2862,0.2855,0.2855,0.2856,0.2856,0.2933,0.2935,0,0,0,0,0,0,0.2778,0.2778,0.2814,0.2816,0.2798,0.2819,0.2821,0.2826,0.2835,0.2837,0.2835,0.2835,0.2848,0.2849,0.2851,0.2903,0.2855,0.2856,0.2856,0.2931,0.2933,0.2935,0,0,0,0,0,0,0.2776,0.278,0.2813,0.28,0.2805,0.282,0.2825,0.2827,0.2843,0.2842,0.2843,0.2851,0.2848,0.285,0.2875,0.2902,0.2856,0.2857,0.293,0.2932,0.2934,0.298,0,0,0,0,0,0,0.2775,0.278,0.2787,0.28,0.2805,0.2835,0.2826,0.2828,0.2848,0.2849,0.2856,0.2856,0.2848,0.2874,0.2876,0.2902,0.2858,0.2928,0.2931,0.2934,0.2977,0.2984,0.299,0,0,0,0,0,0.2773,0.2782,0.2787,0.2792,0.2813,0.2836,0.284,0.2848,0.2849,0.2861,0.287,0.2856,0.2894,0.2876,0.2877,0.2904,0.2926,0.293,0.2933,0.2974,0.2982,0.299,0,0,0,0,0,0,0.2762,0.2783,0.2789,0.2803,0.2824,0.2838,0.285,0.2859,0.2875,0.2878,0.2873,0.2875,0.291,0.2903,0.2883,0.2938,0.291,0.2914,0.294,0.2948,0.2955,0.2967,0.2858,0,0,0,0,0,0.2764,0.2778,0.2799,0.2813,0.2825,0.2841,0.2853,0.2863,0.2878,0.2885,0.2892,0.2905,0.2925,0.2933,0.2946,0.2971,0.2988,0.2992,0.2999,0.3005,0.3018,0.3072,0.3085,0.2947,0.2947,0.2947,0,0,0.2762,0.2778,0.2785,0.2812,0.2827,0.285,0.2848,0.2873,0.2896,0.2884,0.2917,0.293,0.2939,0.2971,0.2986,0.2968,0.3053,0.3009,0.3014,0.3024,0.3077,0.3091,0.3103,0.2949,0.2949,0.2949,0,0,0.2766,0.2783,0.2796,0.2817,0.2849,0.2864,0.2877,0.2903,0.2918,0.2951,0.2956,0.2988,0.3007,0.3025,0.3035,0.3088,0.309,0.3093,0.3132,0.3185,0.3196,0.3207,0.3246,0.3259,0.3092,0.3092,0.3092,0,0.2763,0.2782,0.2804,0.2826,0.2845,0.2874,0.2895,0.292,0.2952,0.2976,0.2968,0.3034,0.3035,0.309,0.3107,0.3104,0.3131,0.3097,0.3193,0.3204,0.3214,0.3252,0.3266,0.3094,0.3094,0.3094,0.3094,0,0.2775,0.2796,0.2808,0.2846,0.2872,0.2896,0.2935,0.2969,0.2993,0.3021,0.3084,0.3099,0.3139,0.3147,0.3141,0.3218,0.3214,0.3198,0.3171,0.3231,0.3266,0.3281,0.3098,0.3097,0.3096,0.3096,0,0,0.2749,0.2804,0.2809,0.283,0.2884,0.2906,0.2958,0.3012,0.3062,0.3098,0.316,0.3198,0.322,0.3235,0.3242,0.3284,0.3371,0.3274,0.3276,0.331,0.3491,0.343,0.344,0.3376,0.3379,0.3381,0.3486,0,0.275,0.2785,0.2818,0.2861,0.2882,0.2935,0.2982,0.3041,0.3097,0.3168,0.3209,0.3272,0.325,0.3284,0.3324,0.3371,0.3412,0.3344,0.3431,0.3433,0.337,0.3455,0.318,0.3245,0.35,0.3503,0.3504,0,0.2744,0.2771,0.2805,0.2872,0.2888,0.2924,0.3017,0.3068,0.3176,0.3227,0.3303,0.3343,0.3426,0.3392,0.3501,0.3464,0.3483,0.3506,0.351,0.3449,0.34,0.3228,0.3262,0.3528,0.3526,0.3524,0.3523,0,0.2704,0.2762,0.2788,0.2809,0.2889,0.2924,0.2978,0.3083,0.3148,0.3281,0.3353,0.3441,0.3509,0.3556,0.3601,0.3566,0.3716,0.3667,0.3629,0.3624,0.3404,0.3375,0.3741,0.3741,0.3741,0.374,0.374,0,0.2685,0.2707,0.2772,0.2787,0.2836,0.2906,0.2988,0.3064,0.319,0.3285,0.3384,0.3467,0.3558,0.3643,0.3654,0.37,0.376,0.3663,0.366,0.3412,0.3384,0.3633,0.3619,0.3744,0.3743,0.3743,0.3742,0,0.2636,0.2677,0.2709,0.2787,0.2816,0.2854,0.298,0.305,0.3183,0.3316,0.3367,0.3522,0.364,0.3715,0.3811,0.3774,0.3816,0.3806,0.3508,0.3468,0.3671,0.3658,0.378,0.3779,0.3778,0.3777,0.3776,0,0.2612,0.2623,0.2694,0.2719,0.2755,0.283,0.289,0.3028,0.3102,0.3334,0.3381,0.3559,0.3642,0.3772,0.3757,0.3788,0.3834,0.3533,0.3408,0.3696,0.3682,0.367,0.3659,0.3133,0.3127,0.3123,0.3119,0,0.257,0.2595,0.2627,0.2672,0.2727,0.2784,0.2872,0.2918,0.3097,0.3202,0.3337,0.3432,0.3595,0.3501,0.3567,0.3533,0.3507,0.3438,0.3838,0.3168,0.3096,0.3078,0.3087,0.3076,0.3081,0.3084,0.3086,0.3088,0.254,0.2542,0.2585,0.2613,0.2678,0.2704,0.2705,0.2798,0.2871,0.2981,0.3162,0.3217,0.3294,0.3243,0.316,0.31,0.3327,0.3163,0.3173,0.319,0.3099,0.3029,0.298,0.2983,0.2986,0.2989,0.2991,0,0.2482,0.249,0.2524,0.2543,0.2549,0.2625,0.2667,0.2626,0.2631,0.2784,0.2866,0.2704,0.2681,0.2754,0.2605,0.2616,0.2548,0.2503,0.238,0.2427,0.2468,0.2334,0.2015,0.2011,0.2008,0.2005,0,0,0.2456,0.2441,0.2437,0.2393,0.2418,0.2401,0.2387,0.233,0.2366,0.2327,0.2347,0.2581,0.2704,0.2326,0.2287,0.2123,0.2249,0.2043,0.2839,0.2745,0.278,0.2877,0.2729,0,0,0,0,0]},{"header":{"parameterUnit":"m.s-1","parameterCategory":2,"la1":30.2991,"la2":30.254,"lo1":-89.0895,"lo2":-89.0444,"dy":0.0017,"dx":0.0017,"nx":28,"ny":28,"refTime":"2025-11-21T03:00:00:Z","depth":"2","parameterNumber":3,"parameterNumberName":"V-component_of_CURRENTS"},"data":[0,0,0,0,0,0,0,0,0,0,0,0,0,0,0,0,0,0,0,0,0,0,0,0,0,0,0,0,0,0,0,0,0,0,0,0,0,0,0,0,0,0,0,0,0,0,0,0,0,0,0,0,0,0,0,0,0,0,0.0124,0.0123,0,0.0085,0.0085,0.0084,0.0053,0.0052,0.0052,0.0052,-0.0013,-0.0015,-0.0016,0,0,0,0,0,0,0,0,0,0,0,0,0,0.0128,0.0128,0.0124,0.0123,0.0123,0.0085,0.0085,0.0084,0.0053,0.0052,0.0052,0.0052,-0.0013,-0.0015,-0.0017,0,0,0,0,0,0,0,0,0,0,0,0,0,0.011,0.0128,0.0124,0.0104,0.0102,0.0085,0.0084,0.0084,0.0053,0.0052,0.0052,0.0052,-0.0012,-0.0015,-0.0017,-0.0026,0,0,-0.0024,-0.0025,0,0,0,0,0,0,0,0,0.0111,0.011,0.0107,0.0105,0.0103,0.0075,0.0062,0.0046,0.0053,0.007,0.0052,0.0052,0.0015,0.001,0.0002,-0.0029,-0.0031,-0.0024,-0.0026,-0.0027,-0.0027,0,0,0,0,0,0,0,0.0113,0.0111,0.0107,0.0107,0.0104,0.0083,0.008,0.0059,0.0043,0.0068,0.0066,0.0064,0.0013,0.0004,0.0,-0.0032,-0.0024,-0.0026,-0.0028,-0.0029,-0.0064,-0.0063,0,0,0,0,0,0,0.0123,0.0113,0.0108,0.0106,0.0108,0.0083,0.008,0.0083,0.0043,0.0038,0.0065,0.0063,0.0008,0.0003,-0.0002,0.0005,-0.0027,-0.0029,-0.003,-0.0064,-0.0064,-0.0063,0,0,0,0,0,0,0.0123,0.0123,0.011,0.0109,0.0106,0.0084,0.0087,0.0082,0.0077,0.0041,0.0035,0.0065,0.0008,0.0001,-0.0011,0.0001,-0.003,-0.0032,-0.0065,-0.0064,-0.0064,0.0006,0,0,0,0,0,0,0.0124,0.0124,0.0128,0.011,0.0107,0.0111,0.0087,0.0082,0.0077,0.0074,0.0039,0.0033,0.0007,-0.0007,-0.0013,-0.0003,-0.0034,-0.0066,-0.0065,-0.0064,0.0003,0.0009,0.0014,0,0,0,0,0,0.0124,0.0138,0.0128,0.0128,0.0114,0.0112,0.0108,0.0089,0.0077,0.0082,0.0059,0.0034,-0.0006,-0.0008,-0.0016,-0.0006,-0.0066,-0.0065,-0.0064,0.0001,0.0008,0.0014,0,0,0,0,0,0,0.0144,0.0136,0.0125,0.0136,0.0127,0.0107,0.0109,0.0095,0.008,0.0076,0.0041,0.0033,0.0026,0.0001,-0.0001,-0.0014,-0.0041,-0.0041,0.0011,0.0017,0.0022,0.0038,-0.0036,0,0,0,0,0,0.015,0.0157,0.0144,0.0152,0.015,0.0129,0.0125,0.0114,0.0099,0.0092,0.0068,0.0042,0.0024,0.0014,-0.0008,-0.0013,-0.0043,-0.0012,-0.0007,-0.0002,0.0006,-0.0026,-0.0023,-0.006,-0.006,-0.006,0,0,0.0159,0.0156,0.0159,0.0157,0.0146,0.0158,0.0126,0.0127,0.0136,0.0087,0.0089,0.006,0.0026,0.0021,0.0015,0.0003,-0.0008,-0.0001,0.0004,0.0009,-0.0025,-0.0021,-0.0018,-0.0059,-0.0059,-0.0059,0,0,0.0188,0.0179,0.0196,0.0195,0.0188,0.0179,0.0183,0.0167,0.0159,0.0156,0.0124,0.0105,0.0076,0.0058,0.0044,0.0066,0.0021,0.0056,0.0098,0.0067,0.007,0.0072,0.0036,0.0035,0.006,0.006,0.006,0,0.0199,0.022,0.0201,0.0219,0.0227,0.0195,0.022,0.0208,0.0191,0.0191,0.0166,0.0127,0.0095,0.0093,0.0099,0.0079,0.0051,0.0078,0.0075,0.0077,0.0078,0.004,0.0038,0.0064,0.0063,0.0063,0.0063,0,0.0243,0.0259,0.027,0.0285,0.029,0.0305,0.0292,0.0289,0.0271,0.0259,0.0247,0.0199,0.0179,0.0162,0.0136,0.0132,0.0107,0.0085,0.0061,0.0086,0.0044,0.004,0.0069,0.0067,0.0066,0.0066,0,0,0.0272,0.0298,0.0302,0.0325,0.0328,0.0342,0.0353,0.0361,0.0382,0.0339,0.0355,0.0307,0.0276,0.0258,0.0217,0.0186,0.0162,0.0144,0.0141,0.0114,0.009,0.0062,0.0055,0.014,0.014,0.014,0.0057,0,0.0314,0.0369,0.0367,0.042,0.045,0.0431,0.0452,0.0451,0.0442,0.0446,0.0384,0.0381,0.0315,0.0308,0.0265,0.0196,0.0155,0.0186,0.0066,0.0062,0.0039,0.0051,0.0077,0.0005,0.0053,0.0052,0.0052,0,0.0361,0.0394,0.0454,0.05,0.0511,0.0535,0.057,0.0588,0.0577,0.057,0.0542,0.0493,0.0445,0.0381,0.0264,0.0288,0.0195,0.0128,0.0122,0.0071,0.0027,-0.0012,-0.0005,0.0045,0.0045,0.0046,0.0046,0,0.0403,0.0457,0.051,0.0525,0.0567,0.0589,0.0612,0.0624,0.0664,0.0652,0.0674,0.0593,0.0569,0.0442,0.0294,0.0281,0.0157,0.0121,0.0003,-0.0,-0.0014,-0.0018,0.0029,0.0029,0.003,0.003,0.003,0,0.0454,0.0497,0.0535,0.0565,0.0638,0.0646,0.0724,0.0732,0.0767,0.0835,0.0746,0.0766,0.0584,0.0487,0.033,0.0161,0.0181,0.0014,-0.002,0.001,0.0009,0.0015,0.0015,0.0027,0.0027,0.0028,0.0029,0,0.0493,0.0515,0.0583,0.0637,0.0661,0.0715,0.0808,0.0873,0.0889,0.0972,0.0974,0.0902,0.0779,0.0582,0.0382,0.0227,0.0055,-0.0016,0.0029,0.0001,-0.0094,-0.009,-0.0153,-0.0155,-0.0156,-0.0157,-0.0158,0,0.0518,0.0555,0.0638,0.0692,0.072,0.0805,0.0877,0.0929,0.1008,0.1063,0.1108,0.1012,0.096,0.0646,0.036,0.008,0.0045,-0.0087,-0.0113,-0.0084,-0.0111,-0.0105,-0.01,-0.0109,-0.0109,-0.011,-0.011,0,0.0565,0.0591,0.0651,0.076,0.0843,0.0952,0.1053,0.1132,0.1209,0.127,0.1318,0.1276,0.0992,0.0712,0.0328,0.0135,-0.0042,-0.0105,-0.008,-0.0064,-0.0049,-0.0073,-0.0068,-0.0113,-0.0113,-0.0113,-0.0113,-0.0112,0.06,0.065,0.0729,0.0834,0.0942,0.1075,0.1177,0.1285,0.1407,0.1504,0.1464,0.142,0.11,0.0615,0.0275,-0.0074,-0.0061,-0.0188,-0.0184,-0.018,-0.0157,-0.0145,-0.0224,-0.0224,-0.0225,-0.0225,-0.0225,0,0.0642,0.0701,0.08,0.0929,0.1053,0.1108,0.1283,0.1379,0.1521,0.1604,0.1634,0.1339,0.1029,0.067,0.0153,-0.0166,-0.0186,-0.0267,-0.0216,-0.0211,-0.0206,-0.0183,-0.0258,-0.0259,-0.026,-0.0261,0,0,0.0666,0.0757,0.0805,0.0992,0.1098,0.1282,0.139,0.1513,0.1606,0.1659,0.165,0.1593,0.1158,0.0778,0.0342,0.0049,-0.0007,-0.0014,0.0046,0.0162,0.0171,-0.0129,-0.0083,0,0,0,0,0]}],[{"header":{"parameterUnit":"m.s-1","parameterCategory":2,"la1":30.2991,"la2":30.254,"lo1":-89.0895,"lo2":-89.0444,"dy":0.0017,"dx":0.0017,"nx":28,"ny":28,"refTime":"2025-11-21T03:00:00:Z","depth":"4","parameterNumber":2,"parameterNumberName":"U-component_of_CURRENTS"},"data":[0,0,0,0,0,0,0,0,0,0,0,0,0,0,0,0,0,0,0,0,0,0,0,0,0,0,0,0,0,0,0,0,0,0,0,0,0,0,0,0,0,0,0,0,0,0,0,0,0,0,0,0,0,0,0,0,0,0,0.1805,0.1806,0,0.1864,0.1864,0.1865,0.1919,0.192,0.192,0.1921,0.199,0.1992,0.1993,0,0,0,0,0,0,0,0,0,0,0,0,0,0.1733,0.1734,0.1805,0.1806,0.1807,0.1863,0.1864,0.1865,0.1919,0.192,0.1921,0.1922,0.199,0.1991,0.1993,0,0,0,0,0,0,0,0,0,0,0,0,0,0.1773,0.1734,0.1805,0.1842,0.1846,0.1863,0.1864,0.1865,0.1918,0.192,0.1921,0.1922,0.199,0.1991,0.1993,0.1978,0,0,0.1998,0.1999,0,0,0,0,0,0,0,0,0.1771,0.1776,0.1836,0.1839,0.1844,0.1887,0.1864,0.1904,0.1918,0.1889,0.1921,0.1923,0.1957,0.1961,0.1967,0.1982,0.1985,0.1998,0.1999,0.2,0.2,0,0,0,0,0,0,0,0.1768,0.1774,0.1827,0.1836,0.1842,0.1853,0.186,0.1872,0.1914,0.1892,0.1896,0.1905,0.1959,0.1965,0.1969,0.1986,0.1998,0.1999,0.2,0.2001,0.2115,0.2117,0,0,0,0,0,0,0.1764,0.1771,0.1825,0.1829,0.1812,0.1853,0.1861,0.187,0.1914,0.1922,0.1904,0.1907,0.1962,0.1967,0.1972,0.2061,0.2,0.2001,0.2002,0.2113,0.2116,0.2118,0,0,0,0,0,0,0.1762,0.1768,0.1822,0.1802,0.181,0.1854,0.1863,0.1871,0.1917,0.1924,0.1932,0.1947,0.1963,0.197,0.2021,0.2061,0.2002,0.2003,0.2111,0.2114,0.2117,0.2173,0,0,0,0,0,0,0.1759,0.1767,0.179,0.1802,0.1811,0.1856,0.1862,0.1871,0.1919,0.1925,0.1962,0.1968,0.1965,0.2018,0.2022,0.2062,0.2005,0.2108,0.2112,0.2116,0.2169,0.2178,0.2186,0,0,0,0,0,0.1756,0.1775,0.179,0.1798,0.1836,0.1858,0.1864,0.1897,0.192,0.1943,0.1976,0.1969,0.2046,0.2021,0.2025,0.2066,0.2106,0.2111,0.2116,0.2165,0.2176,0.2186,0,0,0,0,0,0,0.1756,0.1782,0.18,0.1827,0.1854,0.1868,0.1898,0.1919,0.1962,0.1982,0.1989,0.1997,0.2059,0.2056,0.2028,0.2113,0.2077,0.2083,0.2114,0.2124,0.2133,0.2132,0.2006,0,0,0,0,0,0.1766,0.1791,0.1813,0.184,0.1857,0.1886,0.1908,0.1931,0.196,0.1983,0.201,0.2043,0.2073,0.2095,0.2117,0.2158,0.2165,0.219,0.2199,0.2206,0.221,0.2263,0.2276,0.2133,0.2133,0.2133,0,0,0.1774,0.1793,0.181,0.1844,0.187,0.1895,0.1903,0.1947,0.198,0.1982,0.2049,0.2075,0.2092,0.2142,0.217,0.215,0.2252,0.2212,0.2217,0.2218,0.2269,0.2283,0.2295,0.2136,0.2136,0.2135,0,0,0.1787,0.1823,0.1843,0.1868,0.1913,0.193,0.1951,0.199,0.2026,0.208,0.2098,0.215,0.2193,0.2214,0.2228,0.2297,0.2297,0.2314,0.2354,0.2406,0.2418,0.2428,0.2457,0.247,0.2316,0.2316,0.2316,0,0.1801,0.1825,0.1854,0.1878,0.1905,0.1949,0.1976,0.2013,0.2069,0.2102,0.2114,0.2208,0.2224,0.2284,0.2312,0.2315,0.2341,0.2311,0.2416,0.2427,0.2436,0.2464,0.2477,0.2319,0.2319,0.2319,0.2318,0,0.1812,0.1849,0.1867,0.1911,0.1945,0.198,0.2025,0.2079,0.213,0.2162,0.2251,0.2283,0.2338,0.2357,0.2355,0.2439,0.2433,0.2421,0.2386,0.2454,0.2479,0.2492,0.2324,0.2323,0.2322,0.2321,0,0,0.1795,0.1861,0.1872,0.1899,0.1968,0.199,0.2061,0.2123,0.2182,0.2248,0.232,0.2382,0.2417,0.2436,0.2455,0.25,0.2589,0.2497,0.2499,0.2519,0.2702,0.2526,0.2523,0.2604,0.2607,0.2609,0.2691,0,0.1799,0.1843,0.188,0.1935,0.1961,0.2028,0.2086,0.2155,0.2228,0.2312,0.237,0.245,0.2442,0.2493,0.2536,0.2584,0.2626,0.2567,0.264,0.2641,0.247,0.2532,0.2617,0.27,0.2703,0.2705,0.2707,0,0.179,0.1824,0.1873,0.1949,0.1969,0.2017,0.2126,0.2186,0.2305,0.2369,0.2459,0.2512,0.2603,0.2588,0.2695,0.2665,0.2691,0.2715,0.2718,0.254,0.2488,0.262,0.273,0.2728,0.2726,0.2725,0.2723,0,0.1744,0.1816,0.1858,0.1884,0.1977,0.2028,0.2093,0.221,0.2277,0.2425,0.2494,0.2598,0.2676,0.273,0.278,0.2759,0.2884,0.2854,0.2716,0.2704,0.2812,0.28,0.2927,0.2927,0.2926,0.2926,0.2926,0,0.1712,0.1749,0.1848,0.1868,0.1933,0.2014,0.2107,0.2194,0.2329,0.2405,0.2528,0.26,0.2723,0.2799,0.282,0.2802,0.2919,0.273,0.2716,0.2834,0.2824,0.2821,0.2808,0.2929,0.2929,0.2928,0.2927,0,0.1646,0.1713,0.1764,0.1872,0.1912,0.1964,0.2103,0.2165,0.2314,0.2424,0.248,0.264,0.2731,0.2816,0.2916,0.2837,0.285,0.2815,0.2942,0.2934,0.2624,0.2614,0.2658,0.2653,0.2648,0.2644,0.2641,0,0.161,0.1632,0.1751,0.1784,0.1838,0.1931,0.199,0.2144,0.2212,0.2416,0.2452,0.2608,0.2688,0.2687,0.2786,0.2811,0.2779,0.2763,0.2676,0.2616,0.26,0.2596,0.2591,0.2634,0.2633,0.2631,0.263,0,0.1535,0.1597,0.1639,0.1707,0.1774,0.1832,0.1934,0.197,0.2143,0.23,0.2372,0.2424,0.2518,0.2579,0.2623,0.2633,0.2758,0.2714,0.2722,0.2641,0.2587,0.2574,0.2575,0.2614,0.2616,0.2618,0.2619,0,0.1482,0.1493,0.1557,0.1601,0.1678,0.1699,0.1771,0.1845,0.193,0.2158,0.2178,0.2337,0.2493,0.2489,0.2528,0.2525,0.2479,0.2391,0.2415,0.2434,0.232,0.2216,0.2124,0,0,0,0,0,0.1416,0.1407,0.1439,0.1474,0.1546,0.1588,0.1712,0.1791,0.1965,0.1962,0.2064,0.214,0.2199,0.2288,0.2239,0.2419,0.2483,0.235,0.2392,0.2525,0.2544,0.2429,0,0,0,0,0,0,0.1365,0.1392,0.1391,0.1354,0.1359,0.1417,0.1489,0.1609,0.1622,0.1813,0.1862,0.2007,0.2103,0.2204,0.2197,0.2222,0.2203,0.2458,0.2452,0.2514,0.2531,0.2546,0.2434,0,0,0,0,0]},{"header":{"parameterUnit":"m.s-1","parameterCategory":2,"la1":30.2991,"la2":30.254,"lo1":-89.0895,"lo2":-89.0444,"dy":0.0017,"dx":0.0017,"nx":28,"ny":28,"refTime":"2025-11-21T03:00:00:Z","depth":"4","parameterNumber":3,"parameterNumberName":"V-component_of_CURRENTS"},"data":[0,0,0,0,0,0,0,0,0,0,0,0,0,0,0,0,0,0,0,0,0,0,0,0,0,0,0,0,0,0,0,0,0,0,0,0,0,0,0,0,0,0,0,0,0,0,0,0,0,0,0,0,0,0,0,0,0,0,0.009,0.009,0,0.0064,0.0064,0.0064,0.0043,0.0043,0.0043,0.0043,-0.0005,-0.0006,-0.0007,0,0,0,0,0,0,0,0,0,0,0,0,0,0.0092,0.0092,0.009,0.009,0.009,0.0064,0.0064,0.0064,0.0043,0.0043,0.0043,0.0043,-0.0005,-0.0006,-0.0007,0,0,0,0,0,0,0,0,0,0,0,0,0,0.008,0.0092,0.009,0.0077,0.0076,0.0065,0.0064,0.0063,0.0043,0.0043,0.0043,0.0043,-0.0004,-0.0006,-0.0008,-0.0014,0,0,-0.0013,-0.0014,0,0,0,0,0,0,0,0,0.0081,0.008,0.0079,0.0078,0.0077,0.0058,0.0047,0.0037,0.0043,0.0055,0.0043,0.0043,0.0015,0.0011,0.0006,-0.0017,-0.0019,-0.0013,-0.0014,-0.0015,-0.0015,0,0,0,0,0,0,0,0.0082,0.0081,0.0079,0.0079,0.0077,0.0062,0.0061,0.0045,0.0035,0.0054,0.0052,0.0051,0.0014,0.0008,0.0005,-0.0019,-0.0013,-0.0014,-0.0015,-0.0016,-0.0045,-0.0045,0,0,0,0,0,0,0.0089,0.0082,0.008,0.0079,0.0079,0.0063,0.0061,0.0063,0.0036,0.0032,0.0051,0.005,0.0011,0.0007,0.0003,0.0009,-0.0015,-0.0016,-0.0017,-0.0045,-0.0045,-0.0045,0,0,0,0,0,0,0.0089,0.0089,0.0081,0.008,0.0078,0.0063,0.0066,0.0063,0.006,0.0034,0.0029,0.0052,0.001,0.0005,-0.0003,0.0007,-0.0017,-0.0019,-0.0046,-0.0045,-0.0045,0.0012,0,0,0,0,0,0,0.0089,0.0089,0.0093,0.0081,0.0078,0.0082,0.0066,0.0062,0.006,0.0058,0.0033,0.0028,0.001,0.0,-0.0004,0.0004,-0.002,-0.0046,-0.0046,-0.0045,0.001,0.0014,0.0018,0,0,0,0,0,0.0089,0.01,0.0094,0.0093,0.0084,0.0083,0.008,0.0068,0.006,0.0064,0.0048,0.0029,-0.0,-0.0001,-0.0006,0.0002,-0.0046,-0.0046,-0.0045,0.0008,0.0013,0.0018,0,0,0,0,0,0,0.0103,0.0098,0.0091,0.01,0.0094,0.008,0.0082,0.0073,0.0063,0.0061,0.0035,0.003,0.0025,0.0005,0.0005,-0.0006,-0.0027,-0.0028,0.0015,0.0019,0.0024,0.0035,-0.0021,0,0,0,0,0,0.0108,0.0114,0.0105,0.0112,0.0111,0.0096,0.0094,0.0086,0.0076,0.0071,0.0054,0.0035,0.0022,0.0015,-0.0001,-0.0005,-0.0034,-0.0005,-0.0001,0.0003,0.0008,-0.0025,-0.0023,-0.0043,-0.0043,-0.0043,0,0,0.0115,0.0113,0.0116,0.0115,0.0109,0.0118,0.0094,0.0096,0.0104,0.0068,0.0072,0.0049,0.0024,0.0021,0.0016,0.0007,-0.0008,0.0003,0.0007,0.001,-0.0024,-0.0022,-0.0021,-0.0042,-0.0042,-0.0043,0,0,0.0136,0.0131,0.0144,0.0144,0.014,0.0134,0.0138,0.0127,0.0122,0.0122,0.0098,0.0084,0.0063,0.0049,0.0038,0.0054,0.0015,0.0046,0.0079,0.0047,0.0049,0.0049,0.0012,0.0009,0.0049,0.005,0.005,0,0.0143,0.0161,0.0147,0.0162,0.0169,0.0147,0.0167,0.0159,0.0148,0.0148,0.0131,0.0101,0.0077,0.0075,0.008,0.0065,0.0037,0.0064,0.0053,0.0053,0.0053,0.0014,0.0011,0.0052,0.0052,0.0052,0.0051,0,0.0175,0.019,0.0199,0.0212,0.0217,0.023,0.0222,0.0223,0.0211,0.0202,0.0192,0.0156,0.014,0.0127,0.0109,0.0101,0.0078,0.0062,0.0043,0.0059,0.0017,0.0012,0.0056,0.0055,0.0055,0.0054,0,0,0.0193,0.0218,0.0221,0.0241,0.0247,0.0258,0.0271,0.0279,0.0294,0.0264,0.0272,0.0239,0.0214,0.02,0.0169,0.0139,0.0111,0.0106,0.0103,0.0073,0.0035,0.0018,0.001,0.0094,0.0093,0.0093,0.0005,0,0.0224,0.0267,0.027,0.0313,0.0336,0.0327,0.0347,0.0348,0.0341,0.0341,0.0293,0.0289,0.0244,0.0238,0.0201,0.0137,0.0101,0.0136,0.002,0.0017,0.0003,0.0005,0.0091,0.0001,-0.0001,-0.0002,-0.0002,0,0.0256,0.0283,0.0332,0.0373,0.0382,0.0404,0.0434,0.0449,0.044,0.0433,0.0409,0.037,0.0327,0.0283,0.0177,0.0201,0.0126,0.0067,0.0062,0.0023,-0.001,-0.002,-0.0012,-0.0011,-0.0011,-0.001,-0.0009,0,0.0281,0.0328,0.0372,0.0385,0.0424,0.0446,0.0467,0.0478,0.0505,0.0493,0.05,0.0436,0.0407,0.0306,0.0181,0.0181,0.0052,0.0035,-0.0056,-0.0059,-0.0042,-0.0042,-0.0044,-0.0044,-0.0044,-0.0044,-0.0043,0,0.0313,0.0349,0.0389,0.0414,0.0474,0.0486,0.0547,0.0555,0.0577,0.0612,0.0551,0.0548,0.0411,0.0319,0.0199,0.0055,0.0063,-0.0051,-0.0081,-0.0017,-0.0013,-0.0046,-0.0045,-0.0047,-0.0046,-0.0046,-0.0045,0,0.0332,0.0358,0.0414,0.0465,0.0488,0.0532,0.0608,0.0652,0.0662,0.0701,0.07,0.0631,0.0512,0.036,0.0191,0.0086,-0.0054,-0.0109,-0.0033,-0.0057,-0.015,-0.0145,-0.0214,-0.0216,-0.0217,-0.0218,-0.0218,0,0.0344,0.0374,0.0451,0.0494,0.0522,0.0593,0.0648,0.0691,0.0739,0.0749,0.0765,0.0668,0.0598,0.0351,0.0184,-0.005,-0.0087,-0.0164,-0.0156,-0.0145,-0.0167,-0.016,-0.0154,-0.022,-0.022,-0.0221,-0.0221,0,0.0365,0.0393,0.0441,0.0529,0.0596,0.068,0.0755,0.0798,0.0843,0.0851,0.0822,0.0694,0.0554,0.0357,0.0171,0.0002,-0.0114,-0.0177,-0.0175,-0.0168,-0.0153,-0.0172,-0.0164,-0.0225,-0.0224,-0.0224,-0.0224,0,0.0379,0.0415,0.0478,0.0559,0.0647,0.0734,0.078,0.0833,0.0879,0.0886,0.087,0.072,0.0635,0.0383,0.0213,0.0043,-0.0001,-0.0059,-0.0065,-0.0063,0.0003,0.0046,0.0012,0,0,0,0,0,0.039,0.0433,0.0505,0.0595,0.0685,0.0741,0.0837,0.0877,0.0917,0.0907,0.0895,0.0764,0.0515,0.0409,0.0238,0.0176,-0.0042,-0.0033,-0.0114,-0.0246,-0.0242,-0.0192,0,0,0,0,0,0,0.0397,0.0461,0.05,0.061,0.0679,0.0784,0.0851,0.0884,0.0882,0.089,0.0767,0.0708,0.047,0.0611,0.023,0.0179,0.0101,-0.0146,-0.015,-0.0249,-0.0245,-0.0241,-0.0189,0,0,0,0,0]}]]